Regional Weather Roundup
Issued by NWS Burlington, VT

Home | Current Version | Previous Version | Text Only | Print | Product List | Glossary On
Versions: 1 2 3 4 5 6 7 8 9 10 11 12 13 14 15 16 17 18 19 20 21 22 23 24 25 26 27 28 29 30 31 32 33 34 35 36 37 38 39 40 41 42 43 44 45 46 47 48 49 50
529
ASUS41 KBTV 250310
RWRBTV
VERMONT REGIONAL WEATHER ROUNDUP
NATIONAL WEATHER SERVICE BURLINGTON VT
1100 PM EDT TUE APR 24 2018

NOTE: "FAIR" INDICATES FEW OR NO CLOUDS BELOW 12,000 FEET WITH NO
SIGNIFICANT WEATHER AND/OR OBSTRUCTIONS TO VISIBILITY.

* THESE REPORTS ARE NOT UNDER NWS QUALITY CONTROL AND/OR DO NOT
  REPORT WEATHER SUCH AS PRECIPITATION AND FOG.

VTZ001>019-250400-
_____VERMONT_____


CITY           SKY/WX    TMP DP  RH WIND       PRES   REMARKS
BURLINGTON     MOCLDY    61  25  25 S8        30.10F
MONTPELIER     FAIR      56  28  34 S10       30.17S
MORRISVILLE    FAIR      45  33  63 S5        30.13S
ST. JOHNSBURY*   N/A     59  26  28 MISG      30.12S
LYNDONVILLE*   FAIR      54  26  33 SE7       30.16S
MIDDLEBURY*    FAIR      59  30  33 SW3       30.15R
RUTLAND*       FAIR      57  32  38 SE8       30.17S
SPRINGFIELD    FAIR      56  35  45 S6        30.19F
HIGHGATE*      FAIR      60  24  24 S8        30.08F
NEWPORT*       FAIR      51  29  42 SW6       30.13R
BENNINGTON     FAIR      56  34  43 S8        30.19F

_____LAKE CHAMPLAIN_____


CITY           SKY/WX    TMP DP  RH WIND       PRES   REMARKS
BURTON ISLAND*   N/A     54  32  43 SW12        N/A
COLCHESTER RF*   N/A     48  32  53 S15G22      N/A
DIAMOND ISL*     N/A     59  30  33 S12         N/A

$$

NYZ007-026>031-035-052-083-087-250400-
_____NORTHERN NEW YORK_____


CITY           SKY/WX    TMP DP  RH WIND       PRES   REMARKS
PLATTSBURGH    FAIR      52  29  41 CALM      30.08F
SARANAC LAKE   FAIR      43  28  55 CALM      30.09F
MASSENA        FAIR      55  42  61 CALM      30.08F
OGDENSBURG*    FAIR      53  43  67 CALM      30.06F
POTSDAM*       CLOUDY    55  39  54 S5        30.07F
WATERTOWN      CLOUDY    51  39  63 CALM      30.06F
ALBANY         CLOUDY    58  36  43 S12       30.18F
GLENS FALLS    FAIR      57  35  43 S10       30.16F

$$
NHZ002-005-011-250400-
_____NEW HAMPSHIRE_____


CITY           SKY/WX    TMP DP  RH WIND       PRES   REMARKS
LEBANON        FAIR      58  33  39 S12       30.17S
KEENE          FAIR      54  36  50 S3        30.22F
MT WASHINGTON  MOCLDY    36  16  44 S16G23      N/A  WCI  26
PLYMOUTH       FAIR      58  23  25 CALM      30.18R
WHITEFIELD     FAIR      44  29  55 CALM      30.15R

$$

_____REGIONAL QUEBEC LOCATIONS_____


CITY           SKY/WX    TMP DP  RH WIND       PRES   REMARKS
MONTREAL       MOCLDY    55  39  54 VRB2      30.06S
QUEBEC CITY    CLOUDY    48  37  66 N3        30.07R
SHERBROOKE     PTCLDY    48  32  53 E2        30.09F

_____REGIONAL ONTARIO LOCATIONS_____


CITY           SKY/WX    TMP DP  RH WIND       PRES   REMARKS
OTTAWA         CLOUDY    55  39  54 SW2       30.05F

______KEY______
VSB  - VISIBILITY IN MILES
WCI  - WIND CHILL INDEX
HX   - HEAT INDEX
$$
NNNN




USA.gov is the U.S. government's official web portal to all federal, state and local government web resources and services.